| time (UTC) | temp F | wind direction | speed MPH | gust MPH | rain 1hr in | rain 24hr in | rain mn in | humidity % | barometer mb |
| 20260510130630 | 68 | 139 | 1.0 | 3.0 | 0.00 | 0.00 | 0.00 | 79 | 1014.2 |
| 20260510130127 | 68 | 156 | 1.0 | 2.0 | 0.00 | 0.00 | 0.00 | 79 | 1013.8 |
| 20260510125623 | 68 | 183 | 0.0 | 0.0 | 0.00 | 0.00 | 0.00 | 80 | 1013.7 |
| 20260510125120 | 68 | 175 | 3.0 | 4.0 | 0.00 | 0.00 | 0.00 | 80 | 1013.8 |
| 20260510124617 | 68 | 193 | 0.0 | 0.0 | 0.00 | 0.00 | 0.00 | 80 | 1013.7 |
| 20260510124113 | 68 | 186 | 0.0 | 0.0 | 0.00 | 0.00 | 0.00 | 80 | 1013.4 |
| 20260510123609 | 68 | 136 | 1.0 | 2.0 | 0.00 | 0.00 | 0.00 | 80 | 1013.8 |
| 20260510123105 | 68 | 180 | 0.0 | 0.0 | 0.00 | 0.00 | 0.00 | 80 | 1014.0 |
| 20260510122601 | 68 | 74 | 4.0 | 7.0 | 0.00 | 0.00 | 0.00 | 80 | 1013.7 |
| 20260510122057 | 68 | 193 | 1.0 | 2.0 | 0.00 | 0.00 | 0.00 | 81 | 1013.6 |
| 20260510121554 | 68 | 140 | 0.0 | 0.0 | 0.00 | 0.00 | 0.00 | 81 | 1013.6 |
| 20260510121051 | 68 | 152 | 0.0 | 0.0 | 0.00 | 0.00 | 0.00 | 81 | 1013.6 |
| 20260510120549 | 68 | 160 | 0.0 | 0.0 | 0.00 | 0.00 | 0.00 | 81 | 1013.3 |
| 20260510120044 | 68 | 177 | 0.0 | 1.0 | 0.00 | 0.00 | 0.00 | 82 | 1013.6 |
| 20260510115541 | 68 | 75 | 0.0 | 0.0 | 0.00 | 0.00 | 0.00 | 82 | 1013.7 |
| 20260510115039 | 68 | 191 | 0.0 | 0.0 | 0.00 | 0.00 | 0.00 | 81 | 1013.3 |
| 20260510114534 | 68 | 66 | 1.0 | 2.0 | 0.00 | 0.00 | 0.00 | 81 | 1013.4 |
| 20260510114031 | 68 | 138 | 0.0 | 0.0 | 0.00 | 0.00 | 0.00 | 82 | 1013.4 |
| 20260510113526 | 68 | 66 | 1.0 | 3.0 | 0.00 | 0.00 | 0.00 | 82 | 1013.3 |
| 20260510113024 | 68 | 132 | 2.0 | 4.0 | 0.00 | 0.00 | 0.00 | 82 | 1013.3 |
| 20260510112520 | 68 | 93 | 1.0 | 2.0 | 0.00 | 0.00 | 0.00 | 82 | 1012.9 |
| 20260510112016 | 68 | 138 | 1.0 | 2.0 | 0.00 | 0.00 | 0.00 | 83 | 1012.9 |
| 20260510111514 | 68 | 141 | 1.0 | 2.0 | 0.00 | 0.00 | 0.00 | 83 | 1013.1 |
| 20260510111009 | 68 | 122 | 0.0 | 0.0 | 0.00 | 0.00 | 0.00 | 84 | 1013.1 |
| 20260510110505 | 68 | 36 | 0.0 | 0.0 | 0.00 | 0.00 | 0.00 | 86 | 1013.3 |
| 20260510110002 | 68 | 45 | 3.0 | 7.0 | 0.00 | 0.00 | 0.00 | 88 | 1013.1 |
| 20260510105457 | 68 | 72 | 3.0 | 3.0 | 0.00 | 0.00 | 0.00 | 91 | 1013.3 |
| 20260510104952 | 71 | 144 | 8.0 | 11.0 | 0.00 | 0.00 | 0.00 | 96 | 1013.0 |
| 20260510104449 | 71 | 153 | 1.0 | 2.0 | 0.00 | 0.00 | 0.00 | 97 | 1012.9 |
| 20260510103945 | 71 | 57 | 3.0 | 6.0 | 0.00 | 0.00 | 0.00 | 97 | 1012.9 |
| 20260510103443 | 70 | 52 | 4.0 | 7.0 | 0.00 | 0.00 | 0.00 | 97 | 1012.9 |
| 20260510102938 | 70 | 38 | 1.0 | 1.0 | 0.00 | 0.00 | 0.00 | 97 | 1012.7 |
| 20260510102434 | 70 | 124 | 0.0 | 1.0 | 0.00 | 0.00 | 0.00 | 97 | 1012.8 |
| 20260510101931 | 70 | 64 | 1.0 | 1.0 | 0.00 | 0.00 | 0.00 | 97 | 1012.5 |
| 20260510101429 | 70 | 22 | 1.0 | 2.0 | 0.00 | 0.00 | 0.00 | 97 | 1012.7 |
| 20260510100927 | 69 | 51 | 2.0 | 2.0 | 0.00 | 0.00 | 0.00 | 97 | 1012.7 |
| 20260510100423 | 69 | 106 | 0.0 | 1.0 | 0.00 | 0.00 | 0.00 | 97 | 1012.6 |
| 20260510095919 | 69 | 118 | 0.0 | 0.0 | 0.00 | 0.00 | 0.00 | 97 | 1012.6 |
| 20260510095415 | 69 | 58 | 1.0 | 2.0 | 0.00 | 0.00 | 0.00 | 97 | 1012.3 |
| 20260510094914 | 69 | 45 | 2.0 | 4.0 | 0.00 | 0.00 | 0.00 | 97 | 1012.4 |
| 20260510094409 | 69 | 56 | 0.0 | 1.0 | 0.00 | 0.00 | 0.00 | 96 | 1012.1 |
| 20260510093905 | 69 | 29 | 0.0 | 1.0 | 0.00 | 0.00 | 0.00 | 96 | 1012.1 |
| 20260510093401 | 69 | 193 | 0.0 | 0.0 | 0.00 | 0.00 | 0.00 | 96 | 1011.9 |
| 20260510092858 | 69 | 199 | 0.0 | 0.0 | 0.00 | 0.00 | 0.00 | 95 | 1011.6 |
| 20260510092354 | 69 | 198 | 0.0 | 0.0 | 0.00 | 0.00 | 0.00 | 95 | 1011.3 |
| 20260510091849 | 69 | 196 | 0.0 | 0.0 | 0.00 | 0.00 | 0.00 | 95 | 1011.2 |
| 20260510091347 | 69 | 200 | 0.0 | 0.0 | 0.00 | 0.00 | 0.00 | 94 | 1011.2 |
| 20260510090843 | 69 | 201 | 0.0 | 0.0 | 0.00 | 0.00 | 0.00 | 94 | 1011.2 |
| 20260510090340 | 70 | 201 | 0.0 | 0.0 | 0.00 | 0.00 | 0.00 | 94 | 1010.8 |
| 20260510085836 | 70 | 201 | 0.0 | 0.0 | 0.00 | 0.00 | 0.00 | 93 | 1011.0 |
| 20260510085330 | 70 | 201 | 0.0 | 0.0 | 0.00 | 0.00 | 0.00 | 93 | 1010.9 |
| 20260510084826 | 70 | 201 | 0.0 | 0.0 | 0.00 | 0.00 | 0.00 | 93 | 1010.8 |
| 20260510084323 | 71 | 201 | 0.0 | 0.0 | 0.00 | 0.00 | 0.00 | 92 | 1010.4 |
| 20260510083820 | 71 | 202 | 0.0 | 0.0 | 0.00 | 0.00 | 0.00 | 92 | 1010.4 |
| 20260510083317 | 71 | 198 | 0.0 | 0.0 | 0.00 | 0.00 | 0.00 | 92 | 1010.2 |
| 20260510082812 | 71 | 194 | 0.0 | 0.0 | 0.00 | 0.00 | 0.00 | 92 | 1010.1 |
| 20260510082310 | 71 | 201 | 0.0 | 0.0 | 0.00 | 0.00 | 0.00 | 92 | 1009.9 |
| 20260510081809 | 71 | 175 | 0.0 | 0.0 | 0.00 | 0.00 | 0.00 | 92 | 1009.8 |
| 20260510081305 | 71 | 192 | 0.0 | 0.0 | 0.00 | 0.00 | 0.00 | 93 | 1009.8 |
| 20260510080801 | 71 | 190 | 0.0 | 0.0 | 0.00 | 0.00 | 0.00 | 93 | 1009.6 |
| 20260510080255 | 71 | 181 | 0.0 | 0.0 | 0.00 | 0.00 | 0.00 | 94 | 1009.5 |
| 20260510075753 | 70 | 145 | 0.0 | 0.0 | 0.00 | 0.00 | 0.00 | 93 | 1009.6 |
| 20260510075250 | 70 | 182 | 0.0 | 0.0 | 0.00 | 0.00 | 0.00 | 93 | 1009.6 |
| 20260510074747 | 70 | 194 | 0.0 | 0.0 | 0.00 | 0.00 | 0.00 | 92 | 1009.5 |
| 20260510074244 | 71 | 200 | 0.0 | 0.0 | 0.00 | 0.00 | 0.00 | 92 | 1009.7 |
| 20260510073740 | 71 | 200 | 0.0 | 0.0 | 0.00 | 0.00 | 0.00 | 92 | 1009.8 |
| 20260510073236 | 71 | 200 | 0.0 | 0.0 | 0.00 | 0.00 | 0.00 | 91 | 1009.9 |
| 20260510072731 | 71 | 210 | 0.0 | 0.0 | 0.00 | 0.00 | 0.00 | 91 | 1009.7 |
| 20260510072228 | 71 | 189 | 0.0 | 0.0 | 0.00 | 0.00 | 0.00 | 90 | 1009.8 |
| 20260510071725 | 72 | 317 | 0.0 | 0.0 | 0.00 | 0.00 | 0.00 | 90 | 1009.9 |
| 20260510071222 | 72 | 351 | 0.0 | 0.0 | 0.00 | 0.00 | 0.00 | 89 | 1010.4 |
| 20260510070720 | 72 | 351 | 0.0 | 0.0 | 0.00 | 0.00 | 0.00 | 89 | 1010.8 |
| 20260510070217 | 73 | 359 | 0.0 | 0.0 | 0.00 | 0.00 | 0.00 | 89 | 1010.5 |
| 20260510065712 | 73 | 87 | 0.0 | 0.0 | 0.00 | 0.00 | 0.00 | 88 | 1010.2 |
| 20260510065208 | 73 | 191 | 0.0 | 0.0 | 0.00 | 0.00 | 0.00 | 88 | 1009.5 |
| 20260510064705 | 73 | 191 | 1.0 | 4.0 | 0.00 | 0.00 | 0.00 | 88 | 1009.1 |
| 20260510064203 | 73 | 193 | 0.0 | 0.0 | 0.00 | 0.00 | 0.00 | 87 | 1009.1 |
| 20260510063659 | 73 | 144 | 1.0 | 3.0 | 0.00 | 0.00 | 0.00 | 87 | 1009.0 |
| 20260510063155 | 73 | 167 | 0.0 | 0.0 | 0.00 | 0.00 | 0.00 | 86 | 1008.9 |
| 20260510062652 | 74 | 214 | 4.0 | 4.0 | 0.00 | 0.00 | 0.00 | 85 | 1009.2 |
| 20260510062148 | 74 | 189 | 5.0 | 8.0 | 0.00 | 0.00 | 0.00 | 85 | 1009.1 |
| 20260510061643 | 74 | 178 | 4.0 | 4.0 | 0.00 | 0.00 | 0.00 | 84 | 1009.1 |
| 20260510061141 | 74 | 163 | 1.0 | 3.0 | 0.00 | 0.00 | 0.00 | 84 | 1008.8 |
| 20260510060637 | 74 | 184 | 1.0 | 2.0 | 0.00 | 0.00 | 0.00 | 83 | 1009.0 |
| 20260510060134 | 74 | 175 | 0.0 | 0.0 | 0.00 | 0.00 | 0.00 | 83 | 1009.0 |
| 20260510055630 | 74 | 206 | 3.0 | 4.0 | 0.00 | 0.00 | 0.00 | 82 | 1009.0 |
| 20260510055128 | 75 | 199 | 1.0 | 2.0 | 0.00 | 0.00 | 0.00 | 82 | 1008.9 |
| 20260510054624 | 75 | 208 | 4.0 | 7.0 | 0.00 | 0.00 | 0.00 | 81 | 1009.0 |
| 20260510054119 | 75 | 176 | 1.0 | 4.0 | 0.00 | 0.00 | 0.00 | 81 | 1008.5 |
| 20260510053618 | 74 | 163 | 0.0 | 0.0 | 0.00 | 0.00 | 0.00 | 80 | 1008.9 |
| 20260510053115 | 74 | 135 | 0.0 | 1.0 | 0.00 | 0.00 | 0.00 | 81 | 1008.6 |
| 20260510052611 | 73 | 183 | 0.0 | 0.0 | 0.00 | 0.00 | 0.00 | 81 | 1008.6 |
| 20260510052108 | 73 | 161 | 2.0 | 4.0 | 0.00 | 0.00 | 0.00 | 81 | 1008.7 |
| 20260510051603 | 73 | 184 | 0.0 | 0.0 | 0.00 | 0.00 | 0.00 | 82 | 1008.7 |
| 20260510051101 | 72 | 191 | 0.0 | 0.0 | 0.00 | 0.00 | 0.00 | 81 | 1008.4 |
| 20260510050558 | 72 | 205 | 0.0 | 0.0 | 0.00 | 0.00 | 0.00 | 81 | 1008.6 |
| 20260510050055 | 73 | 178 | 0.0 | 0.0 | 0.00 | 0.00 | 0.00 | 80 | 1008.7 |
| 20260510045552 | 73 | 178 | 0.0 | 0.0 | 0.00 | 0.00 | 0.00 | 80 | 1008.6 |
| 20260510045048 | 73 | 191 | 0.0 | 0.0 | 0.00 | 0.00 | 0.00 | 79 | 1008.6 |
| 20260510044544 | 73 | 184 | 0.0 | 0.0 | 0.00 | 0.00 | 0.00 | 78 | 1008.9 |
| 20260510044042 | 73 | 178 | 0.0 | 0.0 | 0.00 | 0.00 | 0.00 | 78 | 1008.9 |
| 20260510043537 | 73 | 175 | 0.0 | 0.0 | 0.00 | 0.00 | 0.00 | 77 | 1008.8 |
| 20260510043033 | 74 | 184 | 0.0 | 0.0 | 0.00 | 0.00 | 0.00 | 77 | 1008.8 |
| 20260510042527 | 74 | 184 | 0.0 | 0.0 | 0.00 | 0.00 | 0.00 | 76 | 1008.8 |
| 20260510042022 | 74 | 180 | 0.0 | 0.0 | 0.00 | 0.00 | 0.00 | 76 | 1008.5 |
| 20260510041520 | 74 | 184 | 0.0 | 0.0 | 0.00 | 0.00 | 0.00 | 75 | 1008.9 |
| 20260510041017 | 74 | 184 | 0.0 | 0.0 | 0.00 | 0.00 | 0.00 | 74 | 1008.9 |
| 20260510040514 | 74 | 183 | 0.0 | 0.0 | 0.00 | 0.00 | 0.00 | 74 | 1008.8 |
| 20260510040009 | 74 | 183 | 0.0 | 0.0 | 0.00 | 0.00 | 0.00 | 74 | 1008.7 |
| 20260510035506 | 75 | 177 | 0.0 | 0.0 | 0.00 | 0.00 | 0.00 | 74 | 1009.0 |
| 20260510035005 | 75 | 178 | 1.0 | 1.0 | 0.00 | 0.00 | 0.00 | 73 | 1008.8 |
| 20260510034504 | 74 | 179 | 0.0 | 0.0 | 0.00 | 0.00 | 0.00 | 73 | 1009.0 |
| 20260510034000 | 74 | 182 | 0.0 | 0.0 | 0.00 | 0.00 | 0.00 | 73 | 1008.7 |
| 20260510033456 | 74 | 184 | 0.0 | 0.0 | 0.00 | 0.00 | 0.00 | 73 | 1008.9 |
| 20260510032954 | 75 | 184 | 0.0 | 0.0 | 0.00 | 0.00 | 0.00 | 72 | 1009.0 |
| 20260510032450 | 75 | 183 | 0.0 | 0.0 | 0.00 | 0.00 | 0.00 | 71 | 1009.0 |
| 20260510031945 | 75 | 184 | 0.0 | 0.0 | 0.00 | 0.00 | 0.00 | 71 | 1009.1 |
| 20260510031441 | 74 | 184 | 0.0 | 0.0 | 0.00 | 0.00 | 0.00 | 72 | 1009.1 |
| 20260510030937 | 74 | 184 | 0.0 | 0.0 | 0.00 | 0.00 | 0.00 | 72 | 1009.0 |
| 20260510030432 | 74 | 184 | 0.0 | 0.0 | 0.00 | 0.00 | 0.00 | 72 | 1008.9 |
| 20260510025930 | 74 | 184 | 0.0 | 0.0 | 0.00 | 0.00 | 0.00 | 72 | 1009.0 |
| 20260510025427 | 74 | 184 | 0.0 | 0.0 | 0.00 | 0.00 | 0.00 | 73 | 1008.8 |
| 20260510024925 | 74 | 184 | 0.0 | 0.0 | 0.00 | 0.00 | 0.00 | 73 | 1008.7 |
| 20260510024421 | 74 | 184 | 0.0 | 0.0 | 0.00 | 0.00 | 0.00 | 73 | 1008.8 |
| 20260510023917 | 74 | 185 | 0.0 | 0.0 | 0.00 | 0.00 | 0.00 | 74 | 1008.5 |
| 20260510023413 | 74 | 190 | 0.0 | 0.0 | 0.00 | 0.00 | 0.00 | 74 | 1008.5 |
| 20260510022911 | 75 | 196 | 0.0 | 0.0 | 0.00 | 0.00 | 0.00 | 75 | 1008.7 |
| 20260510022409 | 75 | 194 | 0.0 | 0.0 | 0.00 | 0.00 | 0.00 | 74 | 1008.7 |
| 20260510021909 | 75 | 192 | 0.0 | 0.0 | 0.00 | 0.00 | 0.00 | 73 | 1008.4 |
| 20260510021407 | 75 | 192 | 0.0 | 0.0 | 0.00 | 0.00 | 0.00 | 73 | 1008.3 |
| 20260510020903 | 76 | 192 | 0.0 | 0.0 | 0.00 | 0.00 | 0.00 | 73 | 1008.3 |
| 20260510020358 | 76 | 192 | 0.0 | 0.0 | 0.00 | 0.00 | 0.00 | 74 | 1008.4 |
| 20260510015854 | 76 | 185 | 0.0 | 0.0 | 0.00 | 0.00 | 0.00 | 74 | 1008.1 |
| 20260510015350 | 76 | 184 | 0.0 | 0.0 | 0.00 | 0.00 | 0.00 | 73 | 1008.2 |
| 20260510014845 | 77 | 184 | 0.0 | 0.0 | 0.00 | 0.00 | 0.00 | 72 | 1008.1 |
| 20260510014343 | 77 | 184 | 0.0 | 0.0 | 0.00 | 0.00 | 0.00 | 71 | 1008.0 |
| 20260510013839 | 78 | 184 | 0.0 | 0.0 | 0.00 | 0.00 | 0.00 | 70 | 1007.9 |
| 20260510013335 | 79 | 184 | 0.0 | 0.0 | 0.00 | 0.00 | 0.00 | 69 | 1008.0 |
| 20260510012830 | 79 | 184 | 0.0 | 0.0 | 0.00 | 0.00 | 0.00 | 69 | 1008.0 |
| 20260510012330 | 80 | 184 | 0.0 | 0.0 | 0.00 | 0.00 | 0.00 | 68 | 1008.0 |
| 20260510011825 | 80 | 184 | 0.0 | 0.0 | 0.00 | 0.00 | 0.00 | 68 | 1007.8 |
| 20260510011320 | 81 | 190 | 0.0 | 0.0 | 0.00 | 0.00 | 0.00 | 67 | 1007.9 |
| 20260510010817 | 81 | 183 | 0.0 | 0.0 | 0.00 | 0.00 | 0.00 | 67 | 1007.7 |
| 20260510010314 | 82 | 184 | 0.0 | 0.0 | 0.00 | 0.00 | 0.00 | 66 | 1007.5 |
| 20260510005811 | 82 | 179 | 0.0 | 0.0 | 0.00 | 0.00 | 0.00 | 65 | 1007.6 |
| 20260510005307 | 82 | 184 | 0.0 | 0.0 | 0.00 | 0.00 | 0.00 | 65 | 1007.4 |
| 20260510004805 | 83 | 183 | 0.0 | 0.0 | 0.00 | 0.00 | 0.00 | 64 | 1007.5 |
| 20260510004302 | 83 | 179 | 0.0 | 0.0 | 0.00 | 0.00 | 0.00 | 63 | 1007.5 |
| 20260510003759 | 84 | 171 | 0.0 | 0.0 | 0.00 | 0.00 | 0.00 | 62 | 1007.3 |
| 20260510003257 | 85 | 128 | 0.0 | 0.0 | 0.00 | 0.00 | 0.00 | 60 | 1007.5 |
| 20260510002755 | 85 | 82 | 0.0 | 1.0 | 0.00 | 0.00 | 0.00 | 54 | 1007.3 |
| 20260510002253 | 86 | 184 | 0.0 | 0.0 | 0.00 | 0.00 | 0.00 | 51 | 1007.3 |
| 20260510001749 | 86 | 184 | 0.0 | 0.0 | 0.00 | 0.00 | 0.00 | 50 | 1007.7 |
| 20260510001248 | 87 | 179 | 0.0 | 0.0 | 0.00 | 0.00 | 0.00 | 50 | 1007.5 |
| 20260510000743 | 87 | 182 | 0.0 | 0.0 | 0.00 | 0.00 | 0.00 | 50 | 1007.2 |
| 20260510000241 | 87 | 183 | 0.0 | 0.0 | 0.00 | 0.00 | 0.00 | 49 | 1007.4 |
| 20260509235737 | 87 | 184 | 0.0 | 0.0 | 0.00 | 0.00 | 0.00 | 46 | 1007.2 |
| 20260509235234 | 87 | 183 | 0.0 | 0.0 | 0.00 | 0.00 | 0.00 | 47 | 1007.2 |
| 20260509234729 | 87 | 172 | 0.0 | 0.0 | 0.00 | 0.00 | 0.00 | 48 | 1007.1 |
| 20260509234227 | 88 | 206 | 0.0 | 0.0 | 0.00 | 0.00 | 0.00 | 45 | 1007.3 |
| 20260509233725 | 89 | 184 | 0.0 | 0.0 | 0.00 | 0.00 | 0.00 | 47 | 1007.3 |
| 20260509233223 | 89 | 183 | 0.0 | 0.0 | 0.00 | 0.00 | 0.00 | 46 | 1007.4 |
| 20260509232718 | 90 | 170 | 0.0 | 0.0 | 0.00 | 0.00 | 0.00 | 46 | 1007.2 |
| 20260509232216 | 91 | 190 | 0.0 | 0.0 | 0.00 | 0.00 | 0.00 | 45 | 1007.1 |
| 20260509231712 | 90 | 235 | 0.0 | 0.0 | 0.00 | 0.00 | 0.00 | 43 | 1007.3 |
| 20260509231209 | 89 | 249 | 0.0 | 0.0 | 0.00 | 0.00 | 0.00 | 44 | 1007.3 |
| 20260509230706 | 89 | 323 | 0.0 | 0.0 | 0.00 | 0.00 | 0.00 | 44 | 1007.3 |
| 20260509230157 | 90 | 30 | 0.0 | 0.0 | 0.00 | 0.00 | 0.00 | 44 | 1007.4 |
| 20260509225653 | 91 | 95 | 0.0 | 0.0 | 0.00 | 0.00 | 0.00 | 44 | 1007.5 |
| 20260509225149 | 91 | 197 | 0.0 | 0.0 | 0.00 | 0.00 | 0.00 | 44 | 1007.5 |
| 20260509224645 | 89 | 198 | 0.0 | 0.0 | 0.00 | 0.00 | 0.00 | 44 | 1007.2 |
| 20260509224142 | 89 | 113 | 0.0 | 0.0 | 0.00 | 0.00 | 0.00 | 45 | 1007.2 |
| 20260509223639 | 89 | 320 | 1.0 | 2.0 | 0.00 | 0.00 | 0.00 | 44 | 1007.1 |
| 20260509223136 | 89 | 239 | 0.0 | 0.0 | 0.00 | 0.00 | 0.00 | 44 | 1007.1 |
| 20260509222633 | 89 | 303 | 0.0 | 0.0 | 0.00 | 0.00 | 0.00 | 46 | 1007.3 |
| 20260509222128 | 90 | 26 | 1.0 | 2.0 | 0.00 | 0.00 | 0.00 | 45 | 1007.2 |
| 20260509221624 | 91 | 226 | 0.0 | 0.0 | 0.00 | 0.00 | 0.00 | 42 | 1007.2 |
| 20260509221120 | 91 | 56 | 0.0 | 0.0 | 0.00 | 0.00 | 0.00 | 45 | 1007.3 |
| 20260509220616 | 91 | 207 | 0.0 | 0.0 | 0.00 | 0.00 | 0.00 | 44 | 1007.0 |
| 20260509220113 | 90 | 177 | 0.0 | 0.0 | 0.00 | 0.00 | 0.00 | 46 | 1007.4 |
| 20260509215608 | 89 | 249 | 0.0 | 0.0 | 0.00 | 0.00 | 0.00 | 44 | 1007.5 |
| 20260509215105 | 90 | 289 | 0.0 | 0.0 | 0.00 | 0.00 | 0.00 | 45 | 1007.3 |
| 20260509214602 | 91 | 228 | 0.0 | 0.0 | 0.00 | 0.00 | 0.00 | 44 | 1007.5 |
| 20260509214059 | 90 | 206 | 0.0 | 0.0 | 0.00 | 0.00 | 0.00 | 44 | 1007.4 |
| 20260509213555 | 90 | 77 | 0.0 | 2.0 | 0.00 | 0.00 | 0.00 | 45 | 1007.2 |
| 20260509213052 | 90 | 185 | 0.0 | 0.0 | 0.00 | 0.00 | 0.00 | 45 | 1007.2 |
| 20260509212549 | 89 | 205 | 0.0 | 0.0 | 0.00 | 0.00 | 0.00 | 45 | 1007.6 |
| 20260509212046 | 88 | 339 | 1.0 | 2.0 | 0.00 | 0.00 | 0.00 | 46 | 1007.5 |
| 20260509211542 | 89 | 357 | 4.0 | 6.0 | 0.00 | 0.00 | 0.00 | 45 | 1007.7 |
| 20260509211039 | 88 | 242 | 0.0 | 0.0 | 0.00 | 0.00 | 0.00 | 44 | 1007.7 |
| 20260509210536 | 89 | 6 | 0.0 | 0.0 | 0.00 | 0.00 | 0.00 | 48 | 1007.8 |
| 20260509210032 | 89 | 21 | 0.0 | 0.0 | 0.00 | 0.00 | 0.00 | 44 | 1007.8 |
| 20260509205526 | 88 | 195 | 0.0 | 0.0 | 0.00 | 0.00 | 0.00 | 43 | 1008.2 |
| 20260509205022 | 87 | 352 | 0.0 | 0.0 | 0.00 | 0.00 | 0.00 | 46 | 1008.2 |
| 20260509204518 | 87 | 310 | 2.0 | 2.0 | 0.00 | 0.00 | 0.00 | 45 | 1008.2 |
| 20260509204015 | 87 | 261 | 0.0 | 1.0 | 0.00 | 0.00 | 0.00 | 46 | 1008.4 |
| 20260509203511 | 88 | 352 | 5.0 | 7.0 | 0.00 | 0.00 | 0.00 | 48 | 1008.1 |
| 20260509203009 | 87 | 294 | 0.0 | 1.0 | 0.00 | 0.00 | 0.00 | 45 | 1008.4 |
| 20260509202503 | 87 | 17 | 3.0 | 6.0 | 0.00 | 0.00 | 0.00 | 43 | 1008.2 |
| 20260509201959 | 89 | 10 | 7.0 | 8.0 | 0.00 | 0.00 | 0.00 | 46 | 1008.6 |
| 20260509201454 | 89 | 215 | 0.0 | 0.0 | 0.00 | 0.00 | 0.00 | 46 | 1008.3 |
| 20260509200952 | 88 | 161 | 0.0 | 0.0 | 0.00 | 0.00 | 0.00 | 48 | 1008.5 |
| 20260509200446 | 88 | 202 | 0.0 | 0.0 | 0.00 | 0.00 | 0.00 | 48 | 1008.6 |
| 20260509195943 | 87 | 238 | 0.0 | 0.0 | 0.00 | 0.00 | 0.00 | 47 | 1008.7 |
| 20260509195433 | 87 | 273 | 0.0 | 0.0 | 0.00 | 0.00 | 0.00 | 48 | 1008.8 |
| 20260509194933 | 87 | 65 | 2.0 | 3.0 | 0.00 | 0.00 | 0.00 | 47 | 1008.7 |
| 20260509194428 | 87 | 309 | 1.0 | 3.0 | 0.00 | 0.00 | 0.00 | 46 | 1008.8 |
| 20260509193926 | 86 | 319 | 2.0 | 3.0 | 0.00 | 0.00 | 0.00 | 51 | 1008.7 |
| 20260509193425 | 86 | 352 | 5.0 | 6.0 | 0.00 | 0.00 | 0.00 | 48 | 1009.0 |
| 20260509192922 | 86 | 10 | 0.0 | 0.0 | 0.00 | 0.00 | 0.00 | 50 | 1009.1 |
| 20260509192418 | 86 | 337 | 6.0 | 7.0 | 0.00 | 0.00 | 0.00 | 49 | 1008.8 |
| 20260509191913 | 86 | 231 | 3.0 | 3.0 | 0.00 | 0.00 | 0.00 | 49 | 1008.7 |
| 20260509191409 | 86 | 242 | 1.0 | 2.0 | 0.00 | 0.00 | 0.00 | 54 | 1009.2 |
| 20260509190905 | 86 | 253 | 0.0 | 0.0 | 0.00 | 0.00 | 0.00 | 53 | 1009.2 |
| 20260509190403 | 86 | 280 | 2.0 | 2.0 | 0.00 | 0.00 | 0.00 | 55 | 1009.1 |
| 20260509185900 | 86 | 263 | 2.0 | 4.0 | 0.00 | 0.00 | 0.00 | 55 | 1009.2 |
| 20260509185356 | 86 | 322 | 2.0 | 2.0 | 0.00 | 0.00 | 0.00 | 54 | 1009.1 |
| 20260509184853 | 86 | 258 | 1.0 | 1.0 | 0.00 | 0.00 | 0.00 | 54 | 1009.0 |
| 20260509184350 | 86 | 257 | 2.0 | 2.0 | 0.00 | 0.00 | 0.00 | 56 | 1009.2 |
| 20260509183848 | 86 | 342 | 0.0 | 0.0 | 0.00 | 0.00 | 0.00 | 55 | 1009.2 |
| 20260509183342 | 84 | 256 | 0.0 | 0.0 | 0.00 | 0.00 | 0.00 | 55 | 1009.2 |
| 20260509182838 | 84 | 336 | 7.0 | 8.0 | 0.00 | 0.00 | 0.00 | 56 | 1009.1 |
| 20260509182336 | 84 | 345 | 6.0 | 6.0 | 0.00 | 0.00 | 0.00 | 56 | 1009.4 |
| 20260509181833 | 84 | 290 | 0.0 | 0.0 | 0.00 | 0.00 | 0.00 | 57 | 1009.4 |
| 20260509181330 | 84 | 2 | 7.0 | 8.0 | 0.00 | 0.00 | 0.00 | 57 | 1009.4 |
| 20260509180827 | 84 | 294 | 3.0 | 3.0 | 0.00 | 0.00 | 0.00 | 57 | 1009.4 |
| 20260509180323 | 84 | 311 | 5.0 | 7.0 | 0.00 | 0.00 | 0.00 | 58 | 1009.5 |
| 20260509175820 | 84 | 337 | 5.0 | 7.0 | 0.00 | 0.00 | 0.00 | 57 | 1009.4 |
| 20260509175316 | 83 | 355 | 8.0 | 8.0 | 0.00 | 0.00 | 0.00 | 56 | 1009.6 |
| 20260509174812 | 83 | 335 | 8.0 | 9.0 | 0.00 | 0.00 | 0.00 | 57 | 1009.4 |
| 20260509174308 | 83 | 324 | 4.0 | 8.0 | 0.00 | 0.00 | 0.00 | 56 | 1009.4 |
| 20260509173804 | 83 | 322 | 8.0 | 9.0 | 0.00 | 0.00 | 0.00 | 56 | 1009.8 |
| 20260509173300 | 83 | 295 | 5.0 | 7.0 | 0.00 | 0.00 | 0.00 | 57 | 1009.8 |
| 20260509172756 | 84 | 338 | 9.0 | 10.0 | 0.00 | 0.00 | 0.00 | 56 | 1009.7 |
| 20260509172253 | 83 | 317 | 0.0 | 3.0 | 0.00 | 0.00 | 0.00 | 57 | 1009.8 |
| 20260509171748 | 82 | 338 | 6.0 | 8.0 | 0.00 | 0.00 | 0.00 | 57 | 1009.7 |
| 20260509171245 | 83 | 267 | 2.0 | 2.0 | 0.00 | 0.00 | 0.00 | 56 | 1010.1 |
| 20260509170741 | 83 | 325 | 0.0 | 2.0 | 0.00 | 0.00 | 0.00 | 56 | 1010.1 |
| 20260509170237 | 83 | 239 | 1.0 | 3.0 | 0.00 | 0.00 | 0.00 | 54 | 1010.1 |
| 20260509165736 | 82 | 242 | 3.0 | 4.0 | 0.00 | 0.00 | 0.00 | 55 | 1010.1 |
| 20260509165232 | 82 | 4 | 5.0 | 6.0 | 0.00 | 0.00 | 0.00 | 57 | 1010.1 |
| 20260509164728 | 82 | 322 | 7.0 | 9.0 | 0.00 | 0.00 | 0.00 | 57 | 1009.9 |
| 20260509164224 | 83 | 209 | 1.0 | 2.0 | 0.00 | 0.00 | 0.00 | 57 | 1010.3 |
| 20260509163721 | 82 | 323 | 0.0 | 0.0 | 0.00 | 0.00 | 0.00 | 58 | 1010.2 |
| 20260509163217 | 82 | 255 | 1.0 | 2.0 | 0.00 | 0.00 | 0.00 | 60 | 1010.2 |
| 20260509162715 | 81 | 331 | 1.0 | 3.0 | 0.00 | 0.00 | 0.00 | 60 | 1010.3 |
| 20260509162210 | 82 | 321 | 6.0 | 7.0 | 0.00 | 0.00 | 0.00 | 59 | 1009.8 |
| 20260509161706 | 81 | 248 | 1.0 | 2.0 | 0.00 | 0.00 | 0.00 | 62 | 1010.1 |
| 20260509161203 | 80 | 353 | 5.0 | 6.0 | 0.00 | 0.00 | 0.00 | 65 | 1010.1 |
| 20260509160658 | 80 | 353 | 5.0 | 7.0 | 0.00 | 0.00 | 0.00 | 65 | 1010.2 |
| 20260509160154 | 81 | 325 | 7.0 | 9.0 | 0.00 | 0.00 | 0.00 | 65 | 1009.9 |
| 20260509155650 | 80 | 355 | 3.0 | 8.0 | 0.00 | 0.00 | 0.00 | 66 | 1010.1 |
| 20260509155146 | 79 | 325 | 5.0 | 6.0 | 0.00 | 0.00 | 0.00 | 68 | 1010.1 |
| 20260509154642 | 79 | 273 | 3.0 | 4.0 | 0.00 | 0.00 | 0.00 | 68 | 1009.7 |
| 20260509154139 | 79 | 328 | 8.0 | 11.0 | 0.00 | 0.00 | 0.00 | 71 | 1009.8 |
| 20260509153636 | 79 | 354 | 6.0 | 8.0 | 0.00 | 0.00 | 0.00 | 70 | 1009.8 |
| 20260509153133 | 79 | 355 | 0.0 | 0.0 | 0.00 | 0.00 | 0.00 | 72 | 1010.2 |
| 20260509152628 | 78 | 259 | 1.0 | 1.0 | 0.00 | 0.00 | 0.00 | 72 | 1009.9 |
| 20260509152126 | 78 | 339 | 6.0 | 7.0 | 0.00 | 0.00 | 0.00 | 73 | 1009.9 |
| 20260509151622 | 77 | 259 | 0.0 | 0.0 | 0.00 | 0.00 | 0.00 | 74 | 1009.9 |
| 20260509151120 | 78 | 288 | 0.0 | 2.0 | 0.00 | 0.00 | 0.00 | 72 | 1009.8 |
| 20260509150618 | 77 | 310 | 5.0 | 6.0 | 0.00 | 0.00 | 0.00 | 74 | 1009.7 |
| 20260509150116 | 77 | 333 | 4.0 | 6.0 | 0.00 | 0.00 | 0.00 | 76 | 1010.1 |
| 20260509145611 | 76 | 327 | 5.0 | 7.0 | 0.00 | 0.00 | 0.00 | 78 | 1010.1 |
| 20260509145107 | 75 | 320 | 7.0 | 9.0 | 0.00 | 0.00 | 0.00 | 78 | 1009.9 |
| 20260509144604 | 75 | 350 | 6.0 | 8.0 | 0.00 | 0.00 | 0.00 | 79 | 1009.9 |
| 20260509144101 | 75 | 356 | 7.0 | 8.0 | 0.00 | 0.00 | 0.00 | 80 | 1009.5 |
| 20260509143558 | 75 | 348 | 7.0 | 8.0 | 0.00 | 0.00 | 0.00 | 80 | 1009.9 |
| 20260509143056 | 75 | 306 | 4.0 | 4.0 | 0.00 | 0.00 | 0.00 | 80 | 1009.9 |
| 20260509142551 | 74 | 350 | 8.0 | 9.0 | 0.00 | 0.00 | 0.00 | 81 | 1009.9 |
| 20260509142047 | 74 | 323 | 6.0 | 7.0 | 0.00 | 0.00 | 0.00 | 82 | 1009.8 |
| 20260509141543 | 74 | 348 | 6.0 | 8.0 | 0.00 | 0.00 | 0.00 | 83 | 1010.1 |
| 20260509141040 | 74 | 324 | 4.0 | 6.0 | 0.00 | 0.00 | 0.00 | 83 | 1009.8 |
| 20260509140537 | 73 | 283 | 5.0 | 7.0 | 0.00 | 0.00 | 0.00 | 83 | 1010.1 |
| 20260509140035 | 73 | 318 | 7.0 | 8.0 | 0.00 | 0.00 | 0.00 | 84 | 1009.7 |
| 20260509135532 | 73 | 339 | 5.0 | 7.0 | 0.00 | 0.00 | 0.00 | 84 | 1010.2 |
| 20260509135030 | 73 | 313 | 5.0 | 7.0 | 0.00 | 0.00 | 0.00 | 85 | 1010.2 |
| 20260509134526 | 72 | 327 | 7.0 | 8.0 | 0.00 | 0.00 | 0.00 | 85 | 1009.8 |
| 20260509134024 | 72 | 269 | 6.0 | 8.0 | 0.00 | 0.00 | 0.00 | 85 | 1009.9 |
| 20260509133520 | 72 | 301 | 2.0 | 3.0 | 0.00 | 0.00 | 0.00 | 85 | 1009.6 |
| 20260509133018 | 72 | 324 | 7.0 | 9.0 | 0.00 | 0.00 | 0.00 | 85 | 1009.7 |
| 20260509132517 | 73 | 341 | 3.0 | 4.0 | 0.00 | 0.00 | 0.00 | 87 | 1009.6 |
| 20260509132015 | 73 | 350 | 2.0 | 3.0 | 0.00 | 0.00 | 0.00 | 88 | 1009.5 |
| 20260509131510 | 73 | 313 | 4.0 | 6.0 | 0.00 | 0.00 | 0.00 | 88 | 1009.5 |
| 20260509131007 | 72 | 329 | 0.0 | 0.0 | 0.00 | 0.00 | 0.00 | 91 | 1009.4 |